Hourly Weather Ruliha

Today, 10 April, Saturday

Time Temperature Precipitation Wind Pressure Humidity
00:00 -1°C° 0 mm 1 mps 734 mmHg 94%
01:00 -1°C° 0 mm 1 mps 734 mmHg 95%
02:00 -2°C° 0 mm 1 mps 734 mmHg 95%
03:00 -1°C° 0 mm 1 mps 734 mmHg 94%
04:00 -1°C° 0 mm 1 mps 734 mmHg 94%
05:00 -1°C° 0 mm 1 mps 734 mmHg 93%
06:00 0°C° 0 mm 1 mps 734 mmHg 89%
07:00 +1°C° 0 mm 1 mps 734 mmHg 85%
08:00 +2°C° 0 mm 1 mps 735 mmHg 81%
09:00 +3°C° 0 mm 1 mps 735 mmHg 76%
10:00 +3°C° 0 mm 2 mps 735 mmHg 71%
11:00 +4°C° 0 mm 2 mps 735 mmHg 65%
12:00 +5°C° 0 mm 2 mps 735 mmHg 61%
13:00 +6°C° 0 mm 2 mps 735 mmHg 58%
14:00 +7°C° 0 mm 2 mps 735 mmHg 54%
15:00 +5°C° 0 mm 3 mps 735 mmHg 59%
16:00 +5°C° 0 mm 3 mps 735 mmHg 64%
17:00 +4°C° 0 mm 3 mps 735 mmHg 68%
18:00 +3°C° 0 mm 3 mps 735 mmHg 74%
19:00 +1°C° 0 mm 3 mps 735 mmHg 79%
20:00 0°C° 0 mm 3 mps 735 mmHg 85%
21:00 0°C° 0 mm 3 mps 736 mmHg 86%
22:00 -1°C° 0 mm 3 mps 736 mmHg 87%
23:00 -1°C° 0 mm 2 mps 736 mmHg 88%

Tomorrow, 11 April, Sunday

Time Temperature Precipitation Wind Pressure Humidity
00:00 -1°C° 0 mm 3 mps 736 mmHg 87%
01:00 -1°C° 0 mm 3 mps 736 mmHg 86%
02:00 -1°C° 0 mm 3 mps 736 mmHg 85%
03:00 -1°C° 0 mm 3 mps 736 mmHg 83%
04:00 -1°C° 0 mm 3 mps 736 mmHg 80%
05:00 -1°C° 0 mm 3 mps 736 mmHg 78%
06:00 0°C° 0 mm 3 mps 736 mmHg 71%
07:00 +1°C° 0 mm 3 mps 737 mmHg 65%
08:00 +4°C° 0 mm 2 mps 737 mmHg 59%
09:00 +5°C° 0 mm 2 mps 737 mmHg 54%
10:00 +7°C° 0 mm 2 mps 737 mmHg 49%
11:00 +8°C° 0 mm 2 mps 738 mmHg 44%
12:00 +9°C° 0 mm 2 mps 738 mmHg 44%
13:00 +10°C° 0 mm 2 mps 738 mmHg 44%
14:00 +12°C° 0 mm 2 mps 738 mmHg 45%
15:00 +10°C° 0 mm 2 mps 738 mmHg 51%
16:00 +9°C° 0 mm 2 mps 738 mmHg 58%
17:00 +9°C° 0 mm 2 mps 738 mmHg 64%
18:00 +7°C° 0 mm 2 mps 738 mmHg 69%
19:00 +6°C° 0 mm 2 mps 738 mmHg 73%
20:00 +5°C° 0 mm 1 mps 739 mmHg 77%
21:00 +5°C° 0 mm 1 mps 739 mmHg 78%
22:00 +4°C° 0 mm 1 mps 739 mmHg 78%
23:00 +4°C° 0 mm 1 mps 738 mmHg 78%

Day after tomorrow, 12 April, Monday

Time Temperature Precipitation Wind Pressure Humidity
00:00 +4°C° 0 mm 1 mps 738 mmHg 78%
01:00 +4°C° 0 mm 1 mps 738 mmHg 78%
02:00 +4°C° 0 mm 1 mps 738 mmHg 78%
03:00 +4°C° 0 mm 1 mps 739 mmHg 79%
04:00 +3°C° 0 mm 0 mps 739 mmHg 79%
05:00 +3°C° 0 mm 0 mps 739 mmHg 79%
06:00 +4°C° 0 mm 0 mps 739 mmHg 74%
07:00 +5°C° 0 mm 0 mps 739 mmHg 70%
08:00 +7°C° 0 mm 0 mps 739 mmHg 65%
09:00 +8°C° 0 mm 0 mps 739 mmHg 61%
10:00 +10°C° 0 mm 0 mps 739 mmHg 58%
11:00 +12°C° 0 mm 1 mps 739 mmHg 54%
12:00 +13°C° 0 mm 1 mps 739 mmHg 51%
13:00 +14°C° 0 mm 1 mps 739 mmHg 47%
14:00 +14°C° 0 mm 1 mps 738 mmHg 44%
15:00 +14°C° 0 mm 1 mps 738 mmHg 47%
16:00 +14°C° 0 mm 1 mps 738 mmHg 49%
17:00 +14°C° 0 mm 1 mps 738 mmHg 51%
18:00 +12°C° 0 mm 2 mps 738 mmHg 57%
19:00 +10°C° 0 mm 2 mps 738 mmHg 63%
20:00 +8°C° 0 mm 2 mps 738 mmHg 70%
21:00 +9°C° 0 mm 1 mps 738 mmHg 71%
22:00 +8°C° 0 mm 1 mps 738 mmHg 72%
23:00 +8°C° 0 mm 1 mps 737 mmHg 73%

13 April, Tuesday

Time Temperature Precipitation Wind Pressure Humidity
00:00 +7°C° 0 mm 1 mps 737 mmHg 74%
01:00 +7°C° 0 mm 1 mps 737 mmHg 76%
02:00 +6°C° 0 mm 1 mps 737 mmHg 77%
03:00 +5°C° 0 mm 2 mps 737 mmHg 79%
04:00 +4°C° 0 mm 2 mps 737 mmHg 80%
05:00 +4°C° 0 mm 2 mps 738 mmHg 81%
06:00 +5°C° 0 mm 2 mps 738 mmHg 73%
07:00 +7°C° 0 mm 3 mps 738 mmHg 65%
08:00 +8°C° 0 mm 3 mps 738 mmHg 57%
09:00 +8°C° 0 mm 4 mps 738 mmHg 50%
10:00 +9°C° 0 mm 5 mps 738 mmHg 43%
11:00 +10°C° 0 mm 5 mps 738 mmHg 36%
12:00 +10°C° 0 mm 6 mps 738 mmHg 42%
13:00 +10°C° 0 mm 6 mps 738 mmHg 47%
14:00 +10°C° 0 mm 6 mps 738 mmHg 52%
15:00 +9°C° 0 mm 7 mps 738 mmHg 57%
16:00 +8°C° 0 mm 7 mps 738 mmHg 62%
17:00 +8°C° 0 mm 7 mps 738 mmHg 67%
18:00 +5°C° 0 mm 6 mps 739 mmHg 72%
19:00 +4°C° 0 mm 6 mps 739 mmHg 77%
20:00 +2°C° 0 mm 5 mps 739 mmHg 81%
21:00 +2°C° 0 mm 5 mps 739 mmHg 80%
22:00 +1°C° 0 mm 4 mps 739 mmHg 78%
23:00 +1°C° 0 mm 4 mps 739 mmHg 76%

14 April, Wednesday

Time Temperature Precipitation Wind Pressure Humidity
00:00 +2°C° 0 mm 3 mps 739 mmHg 77%
01:00 +1°C° 0 mm 3 mps 738 mmHg 77%
02:00 +1°C° 0 mm 3 mps 738 mmHg 77%
03:00 +1°C° 0 mm 3 mps 738 mmHg 79%
04:00 0°C° 0 mm 3 mps 738 mmHg 80%
05:00 +1°C° 0 mm 2 mps 738 mmHg 82%
06:00 +2°C° 0 mm 3 mps 738 mmHg 73%
07:00 +4°C° 0 mm 3 mps 738 mmHg 63%
08:00 +7°C° 0 mm 3 mps 738 mmHg 54%
09:00 +8°C° 0 mm 4 mps 738 mmHg 48%
10:00 +11°C° 0 mm 4 mps 738 mmHg 41%
11:00 +13°C° 0 mm 4 mps 737 mmHg 35%
12:00 +13°C° 0 mm 5 mps 737 mmHg 34%
13:00 +14°C° 0 mm 5 mps 737 mmHg 34%
14:00 +15°C° 0 mm 6 mps 736 mmHg 33%
15:00 +14°C° 0 mm 6 mps 736 mmHg 37%
16:00 +13°C° 0 mm 6 mps 736 mmHg 41%
17:00 +13°C° 0 mm 6 mps 735 mmHg 44%
18:00 +10°C° 0 mm 5 mps 735 mmHg 50%
19:00 +8°C° 0 mm 4 mps 735 mmHg 57%
20:00 +7°C° 0 mm 3 mps 735 mmHg 63%
21:00 +7°C° 0 mm 3 mps 735 mmHg 65%
22:00 +5°C° 0 mm 3 mps 734 mmHg 66%
23:00 +6°C° 0 mm 2 mps 734 mmHg 68%

15 April, Thursday

Time Temperature Precipitation Wind Pressure Humidity
00:00 +5°C° 0 mm 2 mps 733 mmHg 68%
01:00 +5°C° 0 mm 2 mps 733 mmHg 68%
02:00 +4°C° 0 mm 2 mps 733 mmHg 68%
03:00 +4°C° 0 mm 2 mps 732 mmHg 68%
04:00 +4°C° 0 mm 2 mps 732 mmHg 68%
05:00 +4°C° 0 mm 2 mps 732 mmHg 68%
06:00 +6°C° 0 mm 2 mps 732 mmHg 61%
07:00 +7°C° 0 mm 2 mps 732 mmHg 54%
08:00 +10°C° 0 mm 1 mps 732 mmHg 47%
09:00 +12°C° 0 mm 2 mps 731 mmHg 41%
10:00 +13°C° 0 mm 3 mps 731 mmHg 35%
11:00 +16°C° 0 mm 3 mps 731 mmHg 29%
12:00 +17°C° 0 mm 4 mps 731 mmHg 28%
13:00 +18°C° 0 mm 4 mps 730 mmHg 28%
14:00 +17°C° 0 mm 5 mps 730 mmHg 27%
15:00 +17°C° 0 mm 5 mps 730 mmHg 30%
16:00 +16°C° 0 mm 5 mps 729 mmHg 34%
17:00 +15°C° 0 mm 4 mps 729 mmHg 37%
18:00 +14°C° 0 mm 4 mps 729 mmHg 44%
19:00 +12°C° 0 mm 3 mps 729 mmHg 50%
20:00 +10°C° 0 mm 2 mps 729 mmHg 57%
21:00 +9°C° 0 mm 2 mps 729 mmHg 59%
22:00 +9°C° 0 mm 2 mps 728 mmHg 61%
23:00 +8°C° 0 mm 2 mps 728 mmHg 63%
Show more